| time (UTC) | temp F | wind direction | speed knots | gust knots | rain 1hr in | rain 24hr in | rain mn in | humidity % | barometer mb |
| 20260507030438 | 52 | 176 | 0.0 | 0.0 | 0.00 | 0.00 | 0.00 | 66 | 1013.1 |
| 20260507025938 | 52 | 176 | 0.0 | 3.5 | 0.00 | 0.00 | 0.00 | 65 | 1013.1 |
| 20260507025438 | 52 | 176 | 2.6 | 3.5 | 0.00 | 0.00 | 0.00 | 65 | 1013.1 |
| 20260507024938 | 53 | 176 | 0.0 | 3.5 | 0.00 | 0.00 | 0.00 | 66 | 1013.0 |
| 20260507024438 | 53 | 176 | 0.0 | 3.5 | 0.00 | 0.00 | 0.00 | 67 | 1012.9 |
| 20260507023938 | 53 | 176 | 0.0 | 3.5 | 0.00 | 0.00 | 0.00 | 68 | 1013.0 |
| 20260507023438 | 53 | 176 | 0.0 | 3.5 | 0.00 | 0.00 | 0.00 | 68 | 1013.0 |
| 20260507022938 | 54 | 176 | 0.0 | 3.5 | 0.00 | 0.00 | 0.00 | 67 | 1013.0 |
| 20260507022438 | 54 | 176 | 0.0 | 3.5 | 0.00 | 0.00 | 0.00 | 67 | 1012.9 |
| 20260507021938 | 54 | 176 | 0.0 | 3.5 | 0.00 | 0.00 | 0.00 | 67 | 1012.9 |
| 20260507021438 | 54 | 176 | 0.0 | 3.5 | 0.00 | 0.00 | 0.00 | 67 | 1012.8 |
| 20260507020938 | 54 | 176 | 0.0 | 3.5 | 0.00 | 0.00 | 0.00 | 68 | 1012.7 |
| 20260507020438 | 55 | 176 | 0.0 | 3.5 | 0.00 | 0.00 | 0.00 | 67 | 1012.9 |
| 20260507015938 | 55 | 176 | 0.0 | 3.5 | 0.00 | 0.00 | 0.00 | 67 | 1012.7 |
| 20260507015438 | 55 | 176 | 0.0 | 3.5 | 0.00 | 0.00 | 0.00 | 66 | 1012.7 |
| 20260507014938 | 55 | 176 | 0.0 | 3.5 | 0.00 | 0.00 | 0.00 | 66 | 1012.7 |
| 20260507014438 | 56 | 176 | 0.0 | 3.5 | 0.00 | 0.00 | 0.00 | 65 | 1012.7 |
| 20260507013938 | 56 | 176 | 0.9 | 3.5 | 0.00 | 0.00 | 0.00 | 65 | 1012.8 |
| 20260507013438 | 56 | 176 | 0.0 | 3.5 | 0.00 | 0.00 | 0.00 | 64 | 1012.6 |
| 20260507012938 | 56 | 176 | 0.0 | 3.5 | 0.00 | 0.00 | 0.00 | 64 | 1012.8 |
| 20260507012438 | 57 | 176 | 0.0 | 3.5 | 0.00 | 0.00 | 0.00 | 63 | 1012.6 |
| 20260507011939 | 57 | 176 | 0.9 | 3.5 | 0.00 | 0.00 | 0.00 | 63 | 1012.6 |
| 20260507011438 | 57 | 176 | 1.7 | 3.5 | 0.00 | 0.00 | 0.00 | 62 | 1012.6 |
| 20260507010938 | 57 | 176 | 0.0 | 3.5 | 0.00 | 0.00 | 0.00 | 62 | 1012.6 |
| 20260507010438 | 58 | 180 | 0.9 | 1.7 | 0.00 | 0.00 | 0.00 | 62 | 1012.4 |
| 20260507005938 | 58 | 180 | 2.6 | 5.2 | 0.00 | 0.00 | 0.00 | 62 | 1012.4 |
| 20260507005438 | 58 | 180 | 0.9 | 5.2 | 0.00 | 0.00 | 0.00 | 59 | 1012.4 |
| 20260507004938 | 58 | 169 | 1.7 | 5.2 | 0.00 | 0.00 | 0.00 | 62 | 1012.4 |
| 20260507004438 | 58 | 169 | 0.9 | 5.2 | 0.00 | 0.00 | 0.00 | 61 | 1012.4 |
| 20260507003938 | 58 | 169 | 0.0 | 5.2 | 0.00 | 0.00 | 0.00 | 61 | 1012.3 |
| 20260507003438 | 58 | 171 | 0.0 | 5.2 | 0.00 | 0.00 | 0.00 | 60 | 1012.5 |
| 20260507002938 | 58 | 170 | 0.0 | 5.2 | 0.00 | 0.00 | 0.00 | 59 | 1012.5 |
| 20260507002438 | 58 | 170 | 2.6 | 5.2 | 0.00 | 0.00 | 0.00 | 59 | 1012.4 |
| 20260507001938 | 59 | 170 | 1.7 | 5.2 | 0.00 | 0.00 | 0.00 | 59 | 1012.3 |
| 20260507001437 | 59 | 170 | 0.9 | 5.2 | 0.00 | 0.00 | 0.00 | 58 | 1012.4 |
| 20260507000937 | 59 | 170 | 1.7 | 5.2 | 0.00 | 0.00 | 0.00 | 55 | 1012.3 |
| 20260507000437 | 59 | 170 | 0.0 | 5.2 | 0.00 | 0.00 | 0.00 | 58 | 1012.2 |
| 20260506235937 | 60 | 170 | 0.9 | 5.2 | 0.00 | 0.00 | 0.00 | 58 | 1012.1 |
| 20260506235437 | 60 | 169 | 0.0 | 5.2 | 0.00 | 0.00 | 0.00 | 57 | 1012.3 |
| 20260506234937 | 60 | 171 | 0.9 | 5.2 | 0.00 | 0.00 | 0.00 | 57 | 1012.3 |
| 20260506234437 | 60 | 171 | 0.0 | 5.2 | 0.00 | 0.00 | 0.00 | 55 | 1012.2 |
| 20260506233937 | 60 | 170 | 1.7 | 5.2 | 0.00 | 0.00 | 0.00 | 54 | 1012.1 |
| 20260506233437 | 60 | 170 | 0.0 | 5.2 | 0.00 | 0.00 | 0.00 | 55 | 1012.2 |
| 20260506232937 | 60 | 169 | 1.7 | 5.2 | 0.00 | 0.00 | 0.00 | 55 | 1012.3 |
| 20260506232437 | 61 | 169 | 2.6 | 5.2 | 0.00 | 0.00 | 0.00 | 54 | 1012.4 |
| 20260506231937 | 61 | 169 | 1.7 | 5.2 | 0.00 | 0.00 | 0.00 | 55 | 1012.3 |
| 20260506231437 | 61 | 169 | 2.6 | 5.2 | 0.00 | 0.00 | 0.00 | 55 | 1012.3 |
| 20260506230937 | 62 | 169 | 0.9 | 5.2 | 0.00 | 0.00 | 0.00 | 54 | 1012.2 |
| 20260506230437 | 62 | 180 | 2.6 | 3.5 | 0.00 | 0.00 | 0.00 | 51 | 1012.3 |
| 20260506225937 | 62 | 131 | 0.9 | 6.1 | 0.00 | 0.00 | 0.00 | 49 | 1012.2 |
| 20260506225436 | 62 | 132 | 2.6 | 6.1 | 0.00 | 0.00 | 0.00 | 39 | 1012.2 |
| 20260506224937 | 62 | 134 | 0.9 | 6.1 | 0.00 | 0.00 | 0.00 | 38 | 1012.3 |
| 20260506224436 | 62 | 134 | 2.6 | 6.1 | 0.00 | 0.00 | 0.00 | 38 | 1012.4 |
| 20260506223936 | 62 | 259 | 2.6 | 6.1 | 0.00 | 0.00 | 0.00 | 39 | 1012.3 |
| 20260506223436 | 63 | 292 | 0.0 | 6.1 | 0.00 | 0.00 | 0.00 | 38 | 1012.5 |
| 20260506222936 | 63 | 219 | 0.9 | 6.1 | 0.00 | 0.00 | 0.00 | 36 | 1012.6 |
| 20260506222436 | 63 | 6 | 0.9 | 6.1 | 0.00 | 0.00 | 0.00 | 34 | 1012.6 |
| 20260506221936 | 64 | 167 | 2.6 | 6.1 | 0.00 | 0.00 | 0.00 | 35 | 1012.5 |
| 20260506221436 | 64 | 268 | 0.9 | 6.1 | 0.00 | 0.00 | 0.00 | 40 | 1012.6 |
| 20260506220936 | 64 | 273 | 3.5 | 6.1 | 0.00 | 0.00 | 0.00 | 36 | 1012.6 |
| 20260506220436 | 65 | 286 | 1.7 | 6.1 | 0.00 | 0.00 | 0.00 | 39 | 1012.7 |
| 20260506215936 | 65 | 171 | 1.7 | 6.1 | 0.00 | 0.00 | 0.00 | 36 | 1012.7 |
| 20260506215436 | 65 | 310 | 2.6 | 5.2 | 0.00 | 0.00 | 0.00 | 39 | 1012.7 |
| 20260506214936 | 65 | 265 | 2.6 | 5.2 | 0.00 | 0.00 | 0.00 | 36 | 1012.7 |
| 20260506214436 | 65 | 289 | 0.9 | 5.2 | 0.00 | 0.00 | 0.00 | 41 | 1012.7 |
| 20260506213936 | 65 | 289 | 2.6 | 5.2 | 0.00 | 0.00 | 0.00 | 41 | 1012.8 |
| 20260506213436 | 64 | 284 | 2.6 | 5.2 | 0.00 | 0.00 | 0.00 | 40 | 1012.9 |
| 20260506212936 | 64 | 280 | 1.7 | 5.2 | 0.00 | 0.00 | 0.00 | 39 | 1013.0 |
| 20260506212436 | 64 | 313 | 0.9 | 5.2 | 0.00 | 0.00 | 0.00 | 42 | 1012.9 |
| 20260506211936 | 64 | 323 | 1.7 | 5.2 | 0.00 | 0.00 | 0.00 | 40 | 1013.0 |
| 20260506211436 | 64 | 39 | 4.3 | 5.2 | 0.00 | 0.00 | 0.00 | 39 | 1013.0 |
| 20260506210936 | 64 | 258 | 2.6 | 2.6 | 0.00 | 0.00 | 0.00 | 42 | 1013.0 |
| 20260506210436 | 63 | 197 | 0.9 | 2.6 | 0.00 | 0.00 | 0.00 | 41 | 1013.0 |
| 20260506205936 | 63 | 259 | 2.6 | 6.1 | 0.00 | 0.00 | 0.00 | 40 | 1013.2 |
| 20260506205436 | 63 | 107 | 0.9 | 6.1 | 0.00 | 0.00 | 0.00 | 44 | 1013.1 |
| 20260506204936 | 63 | 289 | 1.7 | 6.1 | 0.00 | 0.00 | 0.00 | 44 | 1013.1 |
| 20260506204436 | 63 | 289 | 2.6 | 6.1 | 0.00 | 0.00 | 0.00 | 43 | 1012.9 |
| 20260506203936 | 62 | 274 | 0.9 | 6.1 | 0.00 | 0.00 | 0.00 | 43 | 1013.0 |
| 20260506203436 | 62 | 292 | 0.9 | 6.1 | 0.00 | 0.00 | 0.00 | 44 | 1013.1 |
| 20260506202936 | 62 | 284 | 0.9 | 6.1 | 0.00 | 0.00 | 0.00 | 46 | 1013.0 |
| 20260506202436 | 62 | 284 | 0.9 | 6.1 | 0.00 | 0.00 | 0.00 | 45 | 1013.1 |
| 20260506201936 | 62 | 291 | 1.7 | 6.1 | 0.00 | 0.00 | 0.00 | 46 | 1013.1 |
| 20260506201436 | 62 | 288 | 1.7 | 6.1 | 0.00 | 0.00 | 0.00 | 48 | 1013.1 |
| 20260506200936 | 61 | 1 | 2.6 | 6.1 | 0.00 | 0.00 | 0.00 | 48 | 1013.2 |
| 20260506200436 | 61 | 116 | 0.9 | 6.1 | 0.00 | 0.00 | 0.00 | 46 | 1013.3 |
| 20260506195936 | 60 | 279 | 0.0 | 6.1 | 0.00 | 0.00 | 0.00 | 48 | 1013.2 |
| 20260506195436 | 60 | 263 | 1.7 | 6.1 | 0.00 | 0.00 | 0.00 | 47 | 1013.2 |
| 20260506194935 | 60 | 279 | 1.7 | 6.1 | 0.00 | 0.00 | 0.00 | 47 | 1013.2 |
| 20260506194435 | 60 | 313 | 0.9 | 6.1 | 0.00 | 0.00 | 0.00 | 48 | 1013.2 |
| 20260506193935 | 59 | 295 | 0.9 | 6.1 | 0.00 | 0.00 | 0.00 | 50 | 1013.2 |
| 20260506193435 | 59 | 288 | 0.0 | 6.1 | 0.00 | 0.00 | 0.00 | 48 | 1013.1 |
| 20260506192935 | 59 | 287 | 0.0 | 6.1 | 0.00 | 0.00 | 0.00 | 51 | 1013.2 |
| 20260506192435 | 58 | 279 | 0.9 | 6.1 | 0.00 | 0.00 | 0.00 | 49 | 1013.2 |
| 20260506191935 | 58 | 281 | 2.6 | 6.1 | 0.00 | 0.00 | 0.00 | 51 | 1013.3 |
| 20260506191435 | 58 | 268 | 2.6 | 6.1 | 0.00 | 0.00 | 0.00 | 53 | 1013.4 |
| 20260506190935 | 57 | 70 | 2.6 | 6.1 | 0.00 | 0.00 | 0.00 | 50 | 1013.4 |
| 20260506190435 | 57 | 293 | 0.9 | 2.6 | 0.00 | 0.00 | 0.00 | 55 | 1013.2 |
| 20260506185935 | 57 | 277 | 2.6 | 6.1 | 0.00 | 0.01 | 0.00 | 55 | 1013.4 |
| 20260506185435 | 56 | 270 | 1.7 | 6.1 | 0.00 | 0.01 | 0.00 | 53 | 1013.3 |
| 20260506184935 | 56 | 286 | 2.6 | 6.1 | 0.00 | 0.01 | 0.00 | 55 | 1013.3 |
| 20260506184435 | 55 | 284 | 3.5 | 6.1 | 0.00 | 0.01 | 0.00 | 57 | 1013.4 |
| 20260506183935 | 55 | 283 | 2.6 | 6.1 | 0.00 | 0.01 | 0.00 | 54 | 1013.4 |
| 20260506183435 | 55 | 285 | 2.6 | 6.1 | 0.00 | 0.01 | 0.00 | 58 | 1013.4 |
| 20260506182935 | 54 | 271 | 2.6 | 6.1 | 0.00 | 0.01 | 0.00 | 59 | 1013.5 |
| 20260506182435 | 54 | 287 | 0.0 | 6.1 | 0.00 | 0.01 | 0.00 | 60 | 1013.3 |
| 20260506181935 | 53 | 281 | 2.6 | 6.1 | 0.00 | 0.01 | 0.00 | 60 | 1013.3 |
| 20260506181435 | 53 | 280 | 0.9 | 5.2 | 0.00 | 0.01 | 0.00 | 61 | 1013.3 |
| 20260506180935 | 52 | 280 | 2.6 | 5.2 | 0.00 | 0.01 | 0.00 | 61 | 1013.3 |
| 20260506180434 | 52 | 288 | 2.6 | 5.2 | 0.00 | 0.01 | 0.00 | 59 | 1013.3 |
| 20260506175934 | 51 | 288 | 2.6 | 4.3 | 0.00 | 0.01 | 0.00 | 61 | 1013.3 |
| 20260506175434 | 51 | 309 | 2.6 | 4.3 | 0.00 | 0.01 | 0.00 | 59 | 1013.3 |
| 20260506174935 | 51 | 281 | 2.6 | 4.3 | 0.00 | 0.01 | 0.00 | 60 | 1013.1 |
| 20260506174434 | 50 | 291 | 2.6 | 4.3 | 0.00 | 0.01 | 0.00 | 63 | 1013.1 |
| 20260506173934 | 50 | 295 | 1.7 | 4.3 | 0.00 | 0.01 | 0.00 | 64 | 1013.0 |
| 20260506173434 | 50 | 295 | 1.7 | 4.3 | 0.00 | 0.01 | 0.00 | 65 | 1013.0 |
| 20260506172934 | 49 | 296 | 2.6 | 4.3 | 0.00 | 0.01 | 0.00 | 65 | 1013.0 |
| 20260506172434 | 49 | 284 | 1.7 | 4.3 | 0.00 | 0.01 | 0.00 | 67 | 1013.0 |
| 20260506171934 | 49 | 284 | 1.7 | 4.3 | 0.00 | 0.01 | 0.00 | 66 | 1013.1 |
| 20260506171434 | 49 | 284 | 1.7 | 4.3 | 0.00 | 0.01 | 0.00 | 68 | 1013.0 |
| 20260506170934 | 48 | 284 | 1.7 | 4.3 | 0.00 | 0.01 | 0.00 | 67 | 1012.8 |
| 20260506170434 | 48 | 280 | 1.7 | 3.5 | 0.00 | 0.01 | 0.00 | 68 | 1012.7 |
| 20260506165934 | 48 | 279 | 2.6 | 4.3 | 0.00 | 0.05 | 0.00 | 69 | 1012.8 |
| 20260506165434 | 48 | 279 | 2.6 | 4.3 | 0.00 | 0.05 | 0.00 | 70 | 1012.8 |
| 20260506164934 | 48 | 314 | 2.6 | 4.3 | 0.00 | 0.05 | 0.00 | 70 | 1012.8 |
| 20260506164434 | 48 | 286 | 2.6 | 4.3 | 0.00 | 0.05 | 0.00 | 73 | 1012.7 |
| 20260506163934 | 48 | 286 | 1.7 | 4.3 | 0.00 | 0.05 | 0.00 | 73 | 1012.8 |
| 20260506163434 | 47 | 286 | 0.9 | 4.3 | 0.00 | 0.05 | 0.00 | 74 | 1012.7 |
| 20260506162934 | 47 | 286 | 1.7 | 4.3 | 0.00 | 0.05 | 0.00 | 73 | 1012.6 |
| 20260506162433 | 47 | 286 | 0.0 | 4.3 | 0.00 | 0.05 | 0.00 | 73 | 1012.6 |
| 20260506161933 | 46 | 280 | 2.6 | 4.3 | 0.00 | 0.05 | 0.00 | 70 | 1012.6 |
| 20260506161433 | 46 | 290 | 0.9 | 3.5 | 0.00 | 0.05 | 0.00 | 73 | 1012.5 |
| 20260506160934 | 46 | 286 | 1.7 | 3.5 | 0.00 | 0.05 | 0.00 | 71 | 1012.4 |
| 20260506160433 | 45 | 280 | 0.9 | 3.5 | 0.00 | 0.05 | 0.00 | 74 | 1012.3 |
| 20260506155933 | 45 | 280 | 1.7 | 3.5 | 0.00 | 0.05 | 0.00 | 73 | 1012.5 |
| 20260506155435 | 44 | 298 | 1.7 | 3.5 | 0.00 | 0.05 | 0.00 | 74 | 1012.2 |
| 20260506154933 | 44 | 298 | 0.0 | 3.5 | 0.00 | 0.05 | 0.00 | 71 | 1012.4 |
| 20260506154433 | 43 | 294 | 0.0 | 2.6 | 0.00 | 0.05 | 0.00 | 74 | 1012.2 |
| 20260506153933 | 43 | 294 | 2.6 | 2.6 | 0.00 | 0.05 | 0.00 | 76 | 1012.1 |
| 20260506153433 | 43 | 294 | 1.7 | 2.6 | 0.00 | 0.05 | 0.00 | 78 | 1012.2 |
| 20260506152933 | 42 | 307 | 1.7 | 2.6 | 0.00 | 0.05 | 0.00 | 79 | 1012.2 |
| 20260506152433 | 42 | 307 | 0.0 | 2.6 | 0.00 | 0.05 | 0.00 | 81 | 1012.2 |
| 20260506151933 | 42 | 307 | 0.9 | 1.7 | 0.00 | 0.05 | 0.00 | 83 | 1012.3 |
| 20260506151433 | 41 | 307 | 0.9 | 0.9 | 0.00 | 0.05 | 0.00 | 84 | 1012.1 |
| 20260506150933 | 41 | 307 | 0.0 | 0.0 | 0.00 | 0.05 | 0.00 | 84 | 1012.2 |
| 20260506150433 | 40 | 307 | 0.0 | 0.0 | 0.00 | 0.05 | 0.00 | 84 | 1012.1 |
| 20260506145933 | 40 | 307 | 0.0 | 4.3 | 0.00 | 0.18 | 0.00 | 85 | 1012.2 |
| 20260506145433 | 40 | 307 | 0.0 | 4.3 | 0.00 | 0.18 | 0.00 | 85 | 1012.2 |
| 20260506144933 | 40 | 307 | 0.0 | 4.3 | 0.00 | 0.18 | 0.00 | 86 | 1012.2 |
| 20260506144433 | 39 | 307 | 0.9 | 4.3 | 0.00 | 0.18 | 0.00 | 86 | 1012.1 |
| 20260506143933 | 39 | 307 | 0.9 | 4.3 | 0.00 | 0.18 | 0.00 | 87 | 1012.0 |
| 20260506143433 | 38 | 307 | 0.0 | 4.3 | 0.00 | 0.18 | 0.00 | 86 | 1012.0 |
| 20260506142933 | 38 | 307 | 0.0 | 4.3 | 0.00 | 0.18 | 0.00 | 87 | 1011.9 |
| 20260506142433 | 38 | 307 | 0.0 | 4.3 | 0.00 | 0.18 | 0.00 | 87 | 1012.0 |
| 20260506141932 | 38 | 307 | 0.0 | 4.3 | 0.00 | 0.18 | 0.00 | 87 | 1011.9 |
| 20260506141432 | 37 | 307 | 0.0 | 4.3 | 0.00 | 0.18 | 0.00 | 87 | 1012.0 |
| 20260506140933 | 37 | 307 | 0.0 | 4.3 | 0.00 | 0.18 | 0.00 | 87 | 1011.8 |
| 20260506140432 | 37 | 307 | 0.0 | 4.3 | 0.00 | 0.18 | 0.00 | 87 | 1011.7 |
| 20260506135932 | 36 | 156 | 0.0 | 1.7 | 0.00 | 0.18 | 0.00 | 87 | 1011.7 |
| 20260506135432 | 36 | 156 | 0.0 | 0.9 | 0.00 | 0.18 | 0.00 | 87 | 1011.6 |
| 20260506134932 | 36 | 156 | 0.0 | 0.9 | 0.00 | 0.18 | 0.00 | 87 | 1011.5 |
| 20260506134432 | 36 | 156 | 0.0 | 0.9 | 0.00 | 0.18 | 0.00 | 87 | 1011.6 |
| 20260506133932 | 36 | 156 | 0.0 | 0.9 | 0.00 | 0.18 | 0.00 | 87 | 1011.4 |
| 20260506133432 | 36 | 156 | 0.0 | 0.9 | 0.00 | 0.18 | 0.00 | 87 | 1011.5 |
| 20260506132932 | 36 | 156 | 0.0 | 0.9 | 0.00 | 0.18 | 0.00 | 86 | 1011.3 |
| 20260506132432 | 36 | 156 | 0.0 | 0.9 | 0.00 | 0.18 | 0.00 | 87 | 1011.4 |
| 20260506131932 | 36 | 156 | 0.0 | 0.9 | 0.00 | 0.18 | 0.00 | 87 | 1011.2 |
| 20260506131432 | 36 | 156 | 0.0 | 0.9 | 0.00 | 0.18 | 0.00 | 87 | 1011.3 |
| 20260506130932 | 36 | 156 | 0.0 | 0.9 | 0.00 | 0.18 | 0.00 | 87 | 1011.3 |
| 20260506130432 | 36 | 156 | 0.0 | 0.0 | 0.00 | 0.18 | 0.00 | 87 | 1011.1 |
| 20260506125932 | 36 | 156 | 0.0 | 0.0 | 0.00 | 0.29 | 0.00 | 87 | 1011.1 |
| 20260506125432 | 36 | 156 | 0.0 | 0.0 | 0.00 | 0.29 | 0.00 | 87 | 1011.1 |
| 20260506124933 | 36 | 156 | 0.0 | 0.0 | 0.00 | 0.29 | 0.00 | 87 | 1011.1 |
| 20260506124432 | 36 | 156 | 0.0 | 0.0 | 0.00 | 0.29 | 0.00 | 87 | 1011.1 |
| 20260506123931 | 36 | 156 | 0.0 | 0.0 | 0.00 | 0.29 | 0.00 | 87 | 1011.0 |
| 20260506123431 | 36 | 156 | 0.0 | 0.0 | 0.00 | 0.29 | 0.00 | 87 | 1010.9 |
| 20260506122931 | 36 | 156 | 0.0 | 0.0 | 0.00 | 0.29 | 0.00 | 87 | 1010.9 |
| 20260506122431 | 36 | 156 | 0.0 | 0.0 | 0.00 | 0.29 | 0.00 | 87 | 1011.0 |
| 20260506121931 | 36 | 156 | 0.0 | 0.0 | 0.00 | 0.29 | 0.00 | 87 | 1010.9 |
| 20260506121431 | 36 | 156 | 0.0 | 0.0 | 0.00 | 0.29 | 0.00 | 87 | 1010.9 |
| 20260506120931 | 36 | 156 | 0.0 | 0.0 | 0.00 | 0.29 | 0.00 | 87 | 1010.8 |
| 20260506120431 | 36 | 156 | 0.0 | 0.0 | 0.00 | 0.29 | 0.00 | 87 | 1010.9 |
| 20260506115931 | 36 | 156 | 0.0 | 0.0 | 0.00 | 0.29 | 0.00 | 87 | 1010.8 |
| 20260506115431 | 36 | 156 | 0.0 | 0.0 | 0.00 | 0.29 | 0.00 | 87 | 1010.9 |
| 20260506114931 | 36 | 156 | 0.0 | 0.0 | 0.00 | 0.29 | 0.00 | 87 | 1010.9 |
| 20260506114431 | 36 | 156 | 0.0 | 0.0 | 0.00 | 0.29 | 0.00 | 87 | 1010.9 |
| 20260506113931 | 36 | 156 | 0.0 | 0.0 | 0.00 | 0.29 | 0.00 | 87 | 1010.7 |
| 20260506113431 | 36 | 156 | 0.0 | 0.0 | 0.00 | 0.29 | 0.00 | 87 | 1010.9 |
| 20260506112931 | 36 | 156 | 0.0 | 0.0 | 0.00 | 0.29 | 0.00 | 87 | 1010.7 |
| 20260506112431 | 36 | 156 | 0.0 | 0.0 | 0.00 | 0.29 | 0.00 | 87 | 1010.8 |
| 20260506111931 | 36 | 156 | 0.0 | 0.0 | 0.00 | 0.29 | 0.00 | 87 | 1010.7 |
| 20260506111430 | 36 | 156 | 0.0 | 0.0 | 0.00 | 0.29 | 0.00 | 87 | 1010.7 |
| 20260506110931 | 36 | 156 | 0.0 | 0.0 | 0.00 | 0.29 | 0.00 | 87 | 1010.7 |
| 20260506110430 | 36 | 156 | 0.0 | 0.0 | 0.00 | 0.29 | 0.00 | 87 | 1010.8 |
| 20260506105930 | 36 | 156 | 0.0 | 0.0 | 0.00 | 0.29 | 0.00 | 87 | 1010.7 |
| 20260506105430 | 36 | 156 | 0.0 | 0.0 | 0.00 | 0.29 | 0.00 | 87 | 1010.6 |
| 20260506104930 | 36 | 156 | 0.0 | 0.0 | 0.00 | 0.29 | 0.00 | 87 | 1010.7 |
| 20260506104430 | 36 | 156 | 0.0 | 0.0 | 0.00 | 0.29 | 0.00 | 87 | 1010.5 |
| 20260506103930 | 36 | 156 | 0.0 | 0.0 | 0.00 | 0.29 | 0.00 | 87 | 1010.5 |
| 20260506103430 | 36 | 156 | 0.0 | 0.0 | 0.00 | 0.29 | 0.00 | 87 | 1010.5 |
| 20260506102930 | 36 | 156 | 0.0 | 0.0 | 0.00 | 0.29 | 0.00 | 87 | 1010.6 |
| 20260506102430 | 36 | 156 | 0.0 | 0.0 | 0.00 | 0.29 | 0.00 | 87 | 1010.4 |
| 20260506101930 | 36 | 156 | 0.0 | 0.0 | 0.00 | 0.29 | 0.00 | 87 | 1010.4 |
| 20260506101430 | 36 | 156 | 0.0 | 0.0 | 0.00 | 0.29 | 0.00 | 87 | 1010.4 |
| 20260506100930 | 36 | 156 | 0.0 | 0.0 | 0.00 | 0.29 | 0.00 | 87 | 1010.3 |
| 20260506100430 | 36 | 156 | 0.0 | 0.0 | 0.00 | 0.29 | 0.00 | 87 | 1010.4 |
| 20260506095930 | 36 | 156 | 0.0 | 0.0 | 0.00 | 0.29 | 0.00 | 87 | 1010.4 |
| 20260506095430 | 36 | 156 | 0.0 | 0.0 | 0.00 | 0.29 | 0.00 | 87 | 1010.5 |
| 20260506094930 | 36 | 156 | 0.0 | 0.0 | 0.00 | 0.29 | 0.00 | 87 | 1010.4 |
| 20260506094430 | 36 | 156 | 0.0 | 0.0 | 0.00 | 0.29 | 0.00 | 87 | 1010.4 |
| 20260506093930 | 36 | 156 | 0.0 | 0.0 | 0.00 | 0.29 | 0.00 | 87 | 1010.5 |
| 20260506093430 | 36 | 156 | 0.0 | 0.0 | 0.00 | 0.29 | 0.00 | 87 | 1010.3 |
| 20260506092930 | 36 | 156 | 0.0 | 0.0 | 0.00 | 0.29 | 0.00 | 87 | 1010.4 |
| 20260506092430 | 36 | 156 | 0.0 | 0.0 | 0.00 | 0.29 | 0.00 | 87 | 1010.3 |
| 20260506091929 | 36 | 156 | 0.0 | 0.0 | 0.00 | 0.29 | 0.00 | 87 | 1010.4 |
| 20260506091430 | 36 | 156 | 0.0 | 0.0 | 0.00 | 0.29 | 0.00 | 87 | 1010.3 |
| 20260506090929 | 36 | 156 | 0.0 | 0.0 | 0.00 | 0.29 | 0.00 | 87 | 1010.4 |
| 20260506090429 | 36 | 156 | 0.0 | 0.0 | 0.00 | 0.29 | 0.00 | 87 | 1010.3 |
| 20260506085929 | 36 | 156 | 0.0 | 3.5 | 0.00 | 0.35 | 0.00 | 87 | 1010.4 |
| 20260506085430 | 36 | 156 | 0.0 | 3.5 | 0.00 | 0.35 | 0.00 | 87 | 1010.6 |
| 20260506084929 | 36 | 156 | 0.0 | 3.5 | 0.00 | 0.35 | 0.00 | 87 | 1010.5 |
| 20260506084429 | 36 | 156 | 0.0 | 3.5 | 0.00 | 0.35 | 0.00 | 87 | 1010.6 |
| 20260506083929 | 36 | 156 | 0.9 | 3.5 | 0.00 | 0.35 | 0.00 | 87 | 1010.6 |
| 20260506083429 | 37 | 156 | 0.0 | 3.5 | 0.00 | 0.35 | 0.00 | 87 | 1010.6 |
| 20260506082929 | 37 | 156 | 0.0 | 3.5 | 0.00 | 0.35 | 0.00 | 87 | 1010.7 |
| 20260506082429 | 37 | 156 | 0.0 | 3.5 | 0.00 | 0.35 | 0.00 | 87 | 1010.6 |
| 20260506081929 | 37 | 156 | 0.9 | 3.5 | 0.00 | 0.35 | 0.00 | 87 | 1010.7 |
| 20260506081429 | 37 | 156 | 1.7 | 3.5 | 0.00 | 0.35 | 0.00 | 87 | 1010.8 |
| 20260506080929 | 37 | 156 | 0.0 | 3.5 | 0.00 | 0.35 | 0.00 | 87 | 1010.7 |
| 20260506080429 | 37 | 156 | 0.0 | 3.5 | 0.00 | 0.35 | 0.00 | 87 | 1010.6 |
| 20260506073428 | 37 | 156 | 0.0 | 3.5 | 0.00 | 0.35 | 0.00 | 87 | 1010.5 |
| 20260506072928 | 37 | 156 | 0.9 | 3.5 | 0.00 | 0.35 | 0.00 | 86 | 1010.7 |
| 20260506072428 | 37 | 156 | 0.9 | 3.5 | 0.00 | 0.35 | 0.00 | 87 | 1010.7 |
| 20260506071928 | 37 | 155 | 1.7 | 2.6 | 0.00 | 0.35 | 0.00 | 87 | 1010.8 |
| 20260506071428 | 37 | 155 | 2.6 | 2.6 | 0.00 | 0.35 | 0.00 | 87 | 1010.7 |
| 20260506070928 | 37 | 153 | 0.9 | 2.6 | 0.00 | 0.35 | 0.00 | 87 | 1010.8 |
| 20260506070428 | 37 | 151 | 0.9 | 1.7 | 0.00 | 0.35 | 0.00 | 87 | 1010.7 |
| 20260506062428 | 37 | 147 | 1.7 | 5.2 | 0.00 | 0.36 | 0.35 | 86 | 1010.5 |
| 20260506061928 | 37 | 147 | 0.9 | 5.2 | 0.00 | 0.36 | 0.35 | 87 | 1010.4 |
| 20260506061428 | 37 | 164 | 0.9 | 5.2 | 0.00 | 0.36 | 0.35 | 87 | 1010.5 |
| 20260506060928 | 37 | 164 | 1.7 | 5.2 | 0.00 | 0.36 | 0.35 | 87 | 1010.3 |
| 20260506060428 | 37 | 168 | 0.9 | 5.2 | 0.00 | 0.36 | 0.35 | 87 | 1010.2 |
| 20260506050927 | 38 | 162 | 0.9 | 2.6 | 0.00 | 0.36 | 0.35 | 86 | 1010.0 |
| 20260506050428 | 38 | 173 | 1.7 | 2.6 | 0.00 | 0.36 | 0.35 | 86 | 1009.9 |
| 20260506044927 | 38 | 169 | 0.0 | 3.5 | 0.00 | 0.36 | 0.35 | 86 | 1009.7 |
| 20260506044427 | 38 | 168 | 0.0 | 3.5 | 0.00 | 0.36 | 0.35 | 86 | 1009.7 |
| 20260506043927 | 38 | 168 | 1.7 | 3.5 | 0.00 | 0.36 | 0.35 | 86 | 1009.5 |
| 20260506043427 | 38 | 169 | 0.0 | 3.5 | 0.00 | 0.36 | 0.35 | 86 | 1009.6 |
| 20260506042927 | 38 | 169 | 0.0 | 3.5 | 0.00 | 0.36 | 0.35 | 87 | 1009.4 |
| 20260506042427 | 39 | 168 | 0.0 | 3.5 | 0.00 | 0.36 | 0.35 | 86 | 1009.6 |
| 20260506041927 | 39 | 168 | 0.0 | 3.5 | 0.00 | 0.36 | 0.35 | 86 | 1009.4 |
| 20260506041427 | 39 | 168 | 0.9 | 3.5 | 0.00 | 0.36 | 0.35 | 86 | 1009.5 |
| 20260506040927 | 39 | 168 | 0.0 | 3.5 | 0.00 | 0.36 | 0.35 | 86 | 1009.5 |
| 20260506040427 | 39 | 170 | 0.0 | 3.5 | 0.00 | 0.36 | 0.35 | 86 | 1009.4 |
| 20260506035927 | 39 | 170 | 0.0 | 3.5 | 0.00 | 0.36 | 0.35 | 86 | 1009.3 |
| 20260506035427 | 39 | 161 | 0.0 | 3.5 | 0.00 | 0.36 | 0.35 | 86 | 1009.3 |
| 20260506034927 | 39 | 164 | 2.6 | 3.5 | 0.00 | 0.36 | 0.35 | 86 | 1009.3 |
| 20260506034427 | 39 | 167 | 0.0 | 3.5 | 0.00 | 0.36 | 0.35 | 86 | 1009.2 |
| 20260506033927 | 39 | 167 | 0.0 | 3.5 | 0.00 | 0.36 | 0.35 | 86 | 1009.1 |
| 20260506033427 | 39 | 167 | 0.0 | 3.5 | 0.00 | 0.36 | 0.35 | 86 | 1009.1 |
| 20260506032927 | 39 | 166 | 0.9 | 3.5 | 0.00 | 0.36 | 0.35 | 86 | 1009.0 |
| 20260506032427 | 39 | 178 | 0.0 | 3.5 | 0.00 | 0.36 | 0.35 | 86 | 1009.0 |
| 20260506031926 | 39 | 172 | 1.7 | 3.5 | 0.00 | 0.36 | 0.35 | 86 | 1008.9 |
| 20260506031427 | 39 | 165 | 0.0 | 2.6 | 0.00 | 0.36 | 0.35 | 86 | 1008.9 |
| 20260506030926 | 39 | 165 | 0.0 | 2.6 | 0.00 | 0.36 | 0.35 | 86 | 1008.8 |